Simultaneous Nadir Overpasses (SNOs) Predictions

Prediction of SNOs between GOES-15 and METOP-C Satellite Orbit:

Table of predicted SNOs for the next 14.0 days since TLE Epoch: 4/12/2022
Index Date Time (GOES-15) GOES-15 Lat,Lon METOP-C Lat,Lon Distance(km) Time Diff (sec)
1 04/13/2022 06:14:37 0.10,-128.37 -0.48,-131.07 306.82 80
2 04/14/2022 05:56:36 0.10,-128.37 0.58,-126.07 261.93 80
3 04/15/2022 18:12:49 -0.10,-128.40 0.42,-130.63 255.21 80
4 04/16/2022 17:54:49 -0.10,-128.39 -0.71,-125.64 313.26 80
5 04/18/2022 06:11:08 0.11,-128.34 -0.32,-130.23 216.29 80
6 04/19/2022 05:53:09 0.11,-128.32 0.81,-125.24 351.46 80
7 04/20/2022 18:09:20 -0.12,-128.34 0.23,-129.80 167.33 80
8 04/21/2022 17:51:21 -0.12,-128.32 -0.90,-124.81 399.98 80
9 04/23/2022 06:07:40 0.13,-128.25 -0.13,-129.40 131.06 80
10 04/24/2022 05:49:41 0.13,-128.23 1.00,-124.41 436.02 80
11 04/25/2022 18:05:52 -0.14,-128.24 0.02,-128.97 83.14 80
